Погода в Монастире

Тунис     35°44′43″N   10°45′21″E
темп.,
°C
ветер,
м/с
пор.,
м/с
влажн.,
%
обл.,
%
осадки,
мм/ч
давл.,
гПа
погр.,
м
19 апреля, пн
пн1901:00+12зсз712630 0.2 1020840
04:00+11зсз711630 0.0 1020871
07:00+12зсз812620 0.0 1020871
10:00+15сз79485 0.0 10211569
13:00+17ссз464281 0.0 10201482
16:00+17св555170 0.0 1019621
19:00+16в56575 0.0 1019428
22:00+15юв4558100 0.0 1021613
20 апреля, вт
вт2001:00+15юв3459100 0.0 1020299
04:00+14ююв466259 0.0 1019282
07:00+14ююв476575 0.0 1019331
10:00+19ююз5742100 0.0 1018634
13:00+22юз453299 0.0 10161143
16:00+23ю343427 0.0 10141537
19:00+18ююв91254100 0.0 1014313
22:00+18ю245955 0.0 1017193
21 апреля, ср
ср2101:00+16вюв56725 0.0 1016176
04:00+15ююв468399 0.0 1016222
07:00+16юв348288 0.0 1016202
10:00+19юв346295 0.0 1016457
13:00+20вюв6662100 0.0 1015676
16:00+19вюв6764100 0.0 1013395
19:00+18в5771100 0.0 1014227
22:00+17в71081100 0.0 1015322
22 апреля, чт
чт2201:00+16вюв6108699 0.0 1014346
04:00+16юв71183100 0.0 1012346
07:00+17ююв5881100 0.0 1013402
10:00+19юв6871100 0.0 1013478
13:00+22вюв6758100 0.0 1011538
16:00+22вюв6657100 0.0 1009535
19:00+18в6880100 0.0 1010205
22:00+17св6688100 0.0 1011278
23 апреля, пт
пт2301:00+16ссв71090100 0.0 1011374
04:00+16св91392100 0.0 1008508
07:00+16с91290100 0.0 1011659
10:00+17с81279100 0.0 1013620
13:00+18с79749 0.0 1012854
16:00+18всв46724 0.0 1011372
19:00+17ссв58780 0.0 1013336
22:00+17ссз8137720 0.0 1015572